Showing default

SKYSAT C12, 43797

Orbit data source: Space-Track

SKYSAT C12, 43797 is a payload satellite owned by Terra Bella (US) in SSO that was launched on Mon, 03 Dec 2018 UTC via an FALCON 9 launch vehicle from the Air Force Western Test Range (AFWTR). Payload-class satellites include a variety of spacecraft equipped with specific instruments for various scientific and technological missions. These include communications satellites like Starlink; space stations such as the ISS; scientific satellites like the Hubble; Earth observation satellites from companies like Planet Labs, Umbra, and HawkEye 360; GPS; miniature CubeSats for education and research; and military/defense satellites.

Loading next visibility...
Identifier
43797, 2018-099AR
Orbit
SSO
Country
Flag of USUS
Related business
Manufacturer
Maxar SSL
Mission
Operational Commercial Imaging
Bus & Motor
SKYSAT-GEN2, Unknown motor
Mass
110 kg wet, 110 kg dry
Launch date (UTC)
2018-12-03 (8 years ago)
Launch vehicle
FALCON 9
Launch site
Air Force Western Test Range (AFWTR)
Object type
Payload
Rocket body
Debris
Shape & HBR
Box, 1.0 m
Radar Cross Section
0.888 m², Medium (>0.1 m² and < 1m²)

Expand to show TLE details & history
Last TLE update: 17 hours ago

TLE from 17 hours ago
0 SKYSAT C12
1 43797U 18099AR  26235.49671756  .00015588  00000-0  27073-3 0  9999
2 43797  96.9249 256.1128 0001459 260.2250  99.8839 15.50909829432285
Epoch: 2026-08-23T11:55Z
TLE epoch observation values (Epoch: 2026-08-23T11:55:16.397Z)
Latitude
0.00005°
Longitude
105.50254°
Altitude
417.384 km
Speed
7.661 km/s
True Right ascension
17h 04m 27s
True Declination
0° 00' 00"
Sunlit
Object was in daylight at epoch
Visualization orbit readout
Latitude
Unknown
Longitude
Unknown
Altitude
Unknown
Speed
Unknown
Apparent Right ascension
Unknown
Apparent Declination
Unknown
Sunlit
N/A
Visualization observer readout
Local Sidereal Time
20:01:03
Azimuth
Unknown
Elevation
Unknown
Doppler factor
Unknown
Orbital elements
Apogee altitude
411.963 km
Perigee altitude
409.982 km
Semi-major axis
6,789.11 km
Eccentricity
0.00015
Inclination
96.9249°
RAAN
256.1128°
Arg. of periapsis
260.225°
True anomaly
99.90037°
Mean anomaly
99.8839°
Eccentric anomaly
99.89214°
Mean motion
3.87993 °/min
Orbital period
92.79 mins
BSTAR
0.00027073
Loading maneuver chart data...
Computing Atmospheric mass density...
Loading historical data...
Loading historical data...
Loading historical data...
Loading historical data...
Loading historical data...
Loading historical data...
Loading historical data...

Documentation

Showing up to 5 results
|